Location: Chittendens Corners
(41.2320°N, 81.4940°W)
Time: 07:40:03
(UTC+00:00)

Cosmos 292 Rocket - Pass Details

Date: 29 October 2020
Orbit: 672 x 695 km, 74.0° (Epoch: 28 November)

Event Time Altitude Azimuth Distance (km) Brightness Sun altitude
Rises 22:44:30 0° 201° (SSW) 3,022 7.6 -4.5°
Reaches altitude 10° 22:46:47 10° 203° (SSW) 2,115 6.9 -4.9°
Maximum altitude 22:51:33 79° 289° (WNW) 703 4.0 -5.7°
Drops below altitude 10° 22:56:23 10° 17° (NNE) 2,145 6.0 -6.6°
Sets 22:58:43 0° 19° (NNE) 3,069 6.8 -7.1°
